Weather History for Greensboro, NC

Change the Weather History Date:

Sunday, December 22, 2013

  Actual Average Record
Temperature  
Mean Temperature 67 °F 40 °F  
Max Temperature 73 °F 49 °F 73 °F (2013)
Min Temperature 60 °F 31 °F 7 °F (1989)
Degree Days  
Heating Degree Days 0 25  
Month to date heating degree days 414 503  
Since 1 July heating degree days 1148 1183  
Cooling Degree Days 2 0  
Month to date cooling degree days 8 0  
Year to date cooling degree days 1389 1483  
Growing Degree Days 16 (Base 50)    
Moisture  
Dew Point 62 °F    
Average Humidity 89    
Maximum Humidity 100    
Minimum Humidity 78    
Precipitation  
Precipitation 0.76 in 0.10 in 1.36 in (1967)
Month to date precipitation 3.06 2.14  
Year to date precipitation 48.30 41.36  
Snow  
Snow 0.00 in 0.10 in 2.00 in (1935)
Month to date snowfall 0.0 0.4  
Since 1 July snowfall T 0.5  
Snow Depth 0.00 in    
Sea Level Pressure  
Sea Level Pressure 30.02 in    
Wind  
Wind Speed 13 mph (SSW)    
Max Wind Speed 24 mph    
Max Gust Speed 33 mph    
Visibility 8 miles    
Events Rain    
T = Trace of Precipitation, MM = Missing Value Source: NWS Daily Summary

Daily Weather History Graph

Daily Weather History Graph

Search for Another Location

Airport:

Trip Planner

Search our weather history database for the weather conditions in past years. The results will help you decide how hot, cold, wet, or windy it might be!

Date:

Astronomy

Dec. 22, 2013 Rise Set
Actual Time 7:27 AM EST 5:09 PM EST
Civil Twilight 6:58 AM EST 5:38 PM EST
Nautical Twilight 6:26 AM EST 6:10 PM EST
Astronomical Twilight 5:55 AM EST 6:41 PM EST
Moon 10:12 PM EST (12/22) 10:30 AM EST (12/22)
Length of Visible Light 10h 39m
Length of Day
9h 42m
Waning Gibbous, 77% of the Moon is Illuminated
Dec 22
Waning Gibbous
Dec 25
Last Quarter
Jan 1
New
Jan 7
First Quarter
Jan 15
Full

Hourly Weather History & Observations

Time (EST) Temp. Dew Point Humidity Pressure Visibility Wind Dir Wind Speed Gust Speed Precip Events Conditions
12:54 AM 66.9 °F 62.1 °F 84% 29.98 in 10.0 mi SSW 16.1 mph 31.1 mph N/A   Overcast
1:54 AM 66.9 °F 62.1 °F 84% 29.96 in 10.0 mi South 13.8 mph 26.5 mph N/A   Overcast
2:49 AM 68.0 °F 62.6 °F 83% 29.99 in 10.0 mi South 21.9 mph 32.2 mph N/A   Overcast
2:54 AM 66.9 °F 62.1 °F 84% 29.97 in 10.0 mi South 19.6 mph 27.6 mph N/A   Overcast
3:51 AM 68.0 °F 62.6 °F 83% 30.00 in 10.0 mi South 19.6 mph 32.2 mph N/A   Overcast
3:54 AM 68.0 °F 63.0 °F 84% 29.98 in 10.0 mi South 19.6 mph 32.2 mph N/A   Overcast
4:54 AM 68.0 °F 63.0 °F 84% 29.96 in 10.0 mi SSW 20.7 mph 26.5 mph N/A   Overcast
5:54 AM 69.1 °F 63.0 °F 81% 29.96 in 10.0 mi SSW 16.1 mph 24.2 mph N/A   Mostly Cloudy
6:54 AM 69.1 °F 64.0 °F 84% 29.98 in 10.0 mi SSW 17.3 mph - N/A   Overcast
7:54 AM 69.1 °F 64.0 °F 84% 29.98 in 10.0 mi SSW 15.0 mph 21.9 mph 0.00 in Rain Light Rain
8:54 AM 69.1 °F 64.0 °F 84% 30.00 in 6.0 mi SSW 11.5 mph 21.9 mph 0.00 in Rain Light Rain
9:11 AM 68.0 °F 64.4 °F 88% 30.03 in 2.0 mi SW 16.1 mph 25.3 mph 0.02 in Rain Rain
9:20 AM 68.0 °F 64.4 °F 88% 30.04 in 4.0 mi SW 11.5 mph 19.6 mph 0.05 in Rain Light Rain
9:54 AM 68.0 °F 64.9 °F 90% 30.04 in 10.0 mi SW 10.4 mph - 0.05 in   Mostly Cloudy
10:54 AM 69.1 °F 66.0 °F 90% 30.03 in 10.0 mi SSW 13.8 mph 20.7 mph 0.00 in   Mostly Cloudy
11:54 AM 71.1 °F 64.9 °F 81% 30.03 in 10.0 mi SW 15.0 mph 23.0 mph N/A   Mostly Cloudy
12:54 PM 72.0 °F 64.0 °F 76% 30.00 in 10.0 mi SSW 11.5 mph - N/A   Mostly Cloudy
1:54 PM 63.0 °F 57.9 °F 84% 30.01 in 10.0 mi Variable 3.5 mph - 0.00 in   Overcast
2:24 PM 62.6 °F 57.2 °F 82% 30.04 in 1.8 mi WNW 13.8 mph 17.3 mph 0.02 in Rain Light Rain
2:31 PM 60.8 °F 59.0 °F 94% 30.05 in 4.0 mi NW 12.7 mph - 0.10 in Rain Rain
2:43 PM 60.8 °F 57.2 °F 88% 30.05 in 2.0 mi WNW 8.1 mph - 0.12 in Rain Rain
2:54 PM 60.1 °F 57.9 °F 93% 30.04 in 2.5 mi WNW 5.8 mph - 0.23 in Rain Rain
3:22 PM 60.8 °F 59.0 °F 94% 30.05 in 4.0 mi Calm Calm - 0.07 in Rain Light Rain
3:39 PM 60.8 °F 59.0 °F 94% 30.07 in 10.0 mi SSW 4.6 mph - 0.07 in   Overcast
3:45 PM 60.8 °F 59.0 °F 94% 30.07 in 2.0 mi WSW 4.6 mph - 0.08 in Rain Rain
3:54 PM 60.1 °F 59.0 °F 96% 30.04 in 2.0 mi South 3.5 mph - 0.17 in Rain Rain
4:16 PM 60.8 °F 59.0 °F 94% 30.05 in 2.0 mi South 4.6 mph - 0.04 in Rain Rain
4:52 PM 60.8 °F 59.0 °F 94% 30.05 in 10.0 mi South 11.5 mph - 0.06 in Rain Light Rain
4:54 PM 61.0 °F 59.0 °F 93% 30.03 in 10.0 mi South 10.4 mph - 0.06 in Rain Light Rain
5:54 PM 61.0 °F 59.0 °F 93% 30.03 in 10.0 mi South 10.4 mph - 0.01 in Rain Light Rain
6:54 PM 61.0 °F 60.1 °F 97% 30.06 in 10.0 mi SSW 8.1 mph - 0.05 in Rain Light Rain
7:54 PM 62.1 °F 61.0 °F 96% 30.03 in 10.0 mi South 10.4 mph - 0.05 in Rain Light Rain
8:54 PM 63.0 °F 61.0 °F 93% 30.02 in 10.0 mi SSW 11.5 mph - 0.07 in Rain Light Rain
9:54 PM 63.0 °F 62.1 °F 97% 30.04 in 10.0 mi SSW 13.8 mph - 0.02 in Rain Light Rain
10:40 PM 62.6 °F 62.6 °F 100% 30.04 in 10.0 mi South 9.2 mph - 0.00 in Rain Light Rain
10:54 PM 63.0 °F 62.1 °F 97% 30.01 in 10.0 mi South 9.2 mph - 0.01 in Rain Light Rain
11:54 PM 63.0 °F 61.0 °F 93% 30.04 in 6.0 mi South 15.0 mph - 0.03 in Rain Rain